GW4940 Weather Reports


Display with metric or nautical units.
time (UTC)temp
F
wind
direction
speed
MPH
gust
MPH
rain 1hr
in
rain 24hr
in
rain mn
in
humidity
%
barometer
mb
20260504231409 69 89 2.0 2.0 0.00 0.00 0.00 53 1010.6
20260504230906 70 352 2.0 3.0 0.00 0.00 0.00 51 1010.8
20260504230403 70 302 2.0 3.0 0.00 0.00 0.00 51 1010.7
20260504225902 70 276 2.0 6.0 0.00 0.00 0.00 53 1010.8
20260504225358 70 359 1.0 3.0 0.00 0.00 0.00 52 1010.7
20260504224856 71 303 2.0 3.0 0.00 0.00 0.00 49 1010.8
20260504224352 71 289 1.0 2.0 0.00 0.00 0.00 51 1010.7
20260504223849 71 9 1.0 3.0 0.00 0.00 0.00 48 1010.6
20260504223345 71 254 2.0 4.0 0.00 0.00 0.00 48 1010.5
20260504222841 71 307 2.0 2.0 0.00 0.00 0.00 51 1010.5
20260504222338 71 244 3.0 6.0 0.00 0.00 0.00 49 1010.8
20260504221837 71 245 5.0 8.0 0.00 0.00 0.00 49 1010.7
20260504221333 72 281 2.0 6.0 0.00 0.00 0.00 49 1010.6
20260504220830 73 56 3.0 7.0 0.00 0.00 0.00 46 1010.5
20260504220327 73 293 0.0 6.0 0.00 0.00 0.00 47 1010.6
20260504215824 71 290 6.0 7.0 0.00 0.00 0.00 48 1010.8
20260504215320 71 351 2.0 3.0 0.00 0.00 0.00 49 1010.8
20260504214817 71 340 4.0 6.0 0.00 0.00 0.00 49 1010.9
20260504214314 72 68 3.0 9.0 0.00 0.00 0.00 48 1010.7
20260504213810 74 255 1.0 3.0 0.00 0.00 0.00 50 1010.7
20260504213306 74 4 3.0 4.0 0.00 0.00 0.00 46 1010.4
20260504212804 73 261 2.0 4.0 0.00 0.00 0.00 46 1010.5
20260504212300 74 107 1.0 7.0 0.00 0.00 0.00 47 1010.3
20260504211758 72 305 1.0 2.0 0.00 0.00 0.00 48 1010.4
20260504211253 71 333 1.0 8.0 0.00 0.00 0.00 51 1010.3
20260504210751 71 322 5.0 6.0 0.00 0.00 0.00 48 1010.6
20260504210248 72 22 2.0 4.0 0.00 0.00 0.00 48 1010.7
20260504205745 72 2 0.0 2.0 0.00 0.00 0.00 50 1010.6
20260504205243 72 308 2.0 3.0 0.00 0.00 0.00 49 1010.5
20260504204741 71 81 1.0 6.0 0.00 0.00 0.00 47 1010.7
20260504204239 71 275 2.0 4.0 0.00 0.00 0.00 48 1010.7
20260504203738 71 331 1.0 6.0 0.00 0.00 0.00 49 1010.8
20260504203235 71 257 2.0 4.0 0.00 0.00 0.00 50 1010.8
20260504202735 71 344 6.0 8.0 0.00 0.00 0.00 49 1010.7
20260504202232 71 43 2.0 6.0 0.00 0.00 0.00 48 1010.9
20260504201729 71 68 1.0 3.0 0.00 0.00 0.00 52 1010.7
20260504201226 71 286 2.0 3.0 0.00 0.00 0.00 48 1010.8
20260504200724 71 261 1.0 3.0 0.00 0.00 0.00 49 1010.9
20260504200220 72 336 3.0 6.0 0.00 0.00 0.00 48 1010.8
20260504195717 71 322 2.0 6.0 0.00 0.00 0.00 49 1010.8
20260504195212 71 257 2.0 8.0 0.00 0.00 0.00 48 1011.1
20260504194710 71 271 5.0 8.0 0.00 0.00 0.00 46 1011.1
20260504194206 71 240 2.0 4.0 0.00 0.00 0.00 49 1011.0
20260504193702 71 15 2.0 8.0 0.00 0.00 0.00 47 1011.1
20260504193200 72 346 2.0 4.0 0.00 0.00 0.00 47 1011.3
20260504192658 73 81 3.0 7.0 0.00 0.00 0.00 48 1011.1
20260504192156 74 354 3.0 7.0 0.00 0.00 0.00 44 1011.0
20260504191654 73 328 6.0 8.0 0.00 0.00 0.00 46 1010.9
20260504191150 73 349 0.0 9.0 0.00 0.00 0.00 47 1010.7
20260504190646 73 258 1.0 10.0 0.00 0.00 0.00 48 1010.9
20260504190143 72 106 3.0 14.0 0.00 0.00 0.00 45 1010.9
20260504185639 73 278 6.0 8.0 0.00 0.00 0.00 46 1010.8
20260504185136 73 326 1.0 7.0 0.00 0.00 0.00 47 1011.1
20260504184632 72 272 2.0 6.0 0.00 0.00 0.00 47 1011.2
20260504184127 72 210 4.0 7.0 0.00 0.00 0.00 49 1011.1
20260504183624 73 353 2.0 8.0 0.00 0.00 0.00 48 1011.3
20260504183122 72 284 4.0 8.0 0.00 0.00 0.00 47 1011.7
20260504182619 71 312 4.0 13.0 0.00 0.00 0.00 48 1011.4
20260504182117 72 110 2.0 10.0 0.00 0.00 0.00 49 1011.4
20260504181614 70 308 2.0 4.0 0.00 0.00 0.00 52 1011.7
20260504181111 71 257 2.0 11.0 0.00 0.00 0.00 48 1011.7
20260504180610 70 282 2.0 8.0 0.00 0.00 0.00 50 1011.7
20260504180109 71 37 4.0 7.0 0.00 0.00 0.00 48 1011.7
20260504175606 70 73 9.0 14.0 0.00 0.00 0.00 49 1012.0
20260504175102 69 305 2.0 8.0 0.00 0.00 0.00 50 1011.9
20260504174601 69 333 5.0 11.0 0.00 0.00 0.00 51 1012.1
20260504174057 68 305 4.0 8.0 0.00 0.00 0.00 52 1012.2
20260504173554 68 303 4.0 16.0 0.00 0.00 0.00 51 1012.3
20260504173052 68 340 4.0 9.0 0.00 0.00 0.00 52 1012.5
20260504172547 68 13 2.0 7.0 0.00 0.00 0.00 51 1012.3
20260504172044 67 197 1.0 6.0 0.00 0.00 0.00 54 1012.6
20260504171541 67 13 5.0 6.0 0.00 0.00 0.00 53 1012.8
20260504171038 67 122 1.0 11.0 0.00 0.00 0.00 52 1012.9
20260504170533 67 263 3.0 6.0 0.00 0.00 0.00 54 1012.9
20260504150918 65 158 1.0 9.0 0.00 0.00 0.00 51 1013.9
20260504150414 65 333 1.0 9.0 0.00 0.00 0.00 53 1014.2
20260504140841 62 277 0.0 3.0 0.00 0.00 0.00 53 1014.1
20260504140336 62 358 1.0 7.0 0.00 0.00 0.00 51 1014.2
20260504130806 59 305 6.0 10.0 0.00 0.00 0.00 52 1014.3
20260504130302 58 24 1.0 7.0 0.00 0.00 0.00 53 1014.1
20260504120225 49 156 0.0 1.0 0.00 0.00 0.00 83 1014.3
20260504110652 46 12 0.0 0.0 0.00 0.00 0.00 93 1014.7
20260504110149 46 10 0.0 0.0 0.00 0.00 0.00 92 1014.7
20260504100615 45 351 0.0 0.0 0.00 0.00 0.00 91 1014.9
20260504100113 45 351 0.0 0.0 0.00 0.00 0.00 90 1014.9
20260504081506 46 355 0.0 1.0 0.00 0.00 0.00 86 1015.6
20260504081001 46 338 0.0 1.0 0.00 0.00 0.00 87 1015.4
20260504080458 46 338 0.0 1.0 0.00 0.00 0.00 87 1015.4
20260504050311 45 241 0.0 0.0 0.00 0.00 0.00 85 1016.3
20260504045808 45 241 0.0 0.0 0.00 0.00 0.00 86 1016.2
20260504045308 46 241 0.0 0.0 0.00 0.00 0.00 85 1016.1
20260504044806 46 241 0.0 0.0 0.00 0.00 0.00 85 1016.3
20260504044303 46 241 0.0 0.0 0.00 0.00 0.00 85 1016.3
20260504043800 46 241 0.0 0.0 0.00 0.00 0.00 85 1016.2
20260504043257 46 241 0.0 0.0 0.00 0.00 0.00 86 1016.2
20260504042755 46 241 0.0 0.0 0.00 0.00 0.00 85 1016.1
20260504042251 46 241 0.0 0.0 0.00 0.00 0.00 86 1016.2
20260504041747 46 241 0.0 0.0 0.00 0.00 0.00 87 1016.1
20260504041243 46 241 0.0 0.0 0.00 0.00 0.00 87 1016.1
20260504040739 46 241 0.0 0.0 0.00 0.00 0.00 86 1016.4
20260504040238 46 241 0.0 0.0 0.00 0.00 0.00 83 1016.3
20260504035733 47 241 0.0 0.0 0.00 0.00 0.00 82 1016.4
20260504035231 47 241 0.0 0.0 0.00 0.00 0.00 83 1016.3
20260504034728 47 241 0.0 0.0 0.00 0.00 0.00 82 1016.4
20260504034225 47 241 0.0 0.0 0.00 0.00 0.00 80 1016.3
20260504033723 47 241 0.0 0.0 0.00 0.00 0.00 80 1016.4
20260504033220 47 241 0.0 0.0 0.00 0.00 0.00 81 1016.4
20260504032717 47 241 0.0 0.0 0.00 0.00 0.00 80 1016.3
20260504032214 47 241 0.0 0.0 0.00 0.00 0.00 81 1016.3
20260504031711 47 241 0.0 0.0 0.00 0.00 0.00 79 1016.4
20260504031208 48 241 0.0 0.0 0.00 0.00 0.00 81 1016.4
20260504030704 48 241 0.0 0.0 0.00 0.00 0.00 80 1016.5
20260504030201 48 241 0.0 0.0 0.00 0.00 0.00 78 1016.4
20260504025658 47 240 0.0 0.0 0.00 0.00 0.00 80 1016.3
20260504025154 47 240 0.0 0.0 0.00 0.00 0.00 82 1016.3
20260504024652 47 240 0.0 0.0 0.00 0.00 0.00 80 1016.3
20260504024148 47 240 0.0 0.0 0.00 0.00 0.00 81 1016.4
20260504023645 47 240 0.0 0.0 0.00 0.00 0.00 81 1016.3
20260504023141 47 240 0.0 0.0 0.00 0.00 0.00 81 1016.4
20260504022637 47 240 0.0 0.0 0.00 0.00 0.00 82 1016.4
20260504022133 47 240 0.0 0.0 0.00 0.00 0.00 81 1016.6
20260504021631 47 240 0.0 0.0 0.00 0.00 0.00 81 1016.4
20260504021127 47 240 0.0 0.0 0.00 0.00 0.00 80 1016.3
20260504020625 47 240 0.0 0.0 0.00 0.00 0.00 82 1016.3
20260504020121 48 240 0.0 0.0 0.00 0.00 0.00 82 1016.3
20260504015617 48 240 0.0 0.0 0.00 0.00 0.00 81 1016.3
20260504015114 48 240 0.0 0.0 0.00 0.00 0.00 82 1016.4
20260504014610 48 240 0.0 0.0 0.00 0.00 0.00 80 1016.2
20260504014107 49 240 0.0 0.0 0.00 0.00 0.00 78 1016.3
20260504013604 49 240 0.0 0.0 0.00 0.00 0.00 76 1016.3
20260504013101 49 240 0.0 0.0 0.00 0.00 0.00 76 1016.1
20260504012558 49 240 0.0 0.0 0.00 0.00 0.00 76 1016.3
20260504012056 49 254 0.0 0.0 0.00 0.00 0.00 75 1016.4
20260504011553 49 254 0.0 0.0 0.00 0.00 0.00 74 1016.1
20260504011049 49 254 0.0 0.0 0.00 0.00 0.00 75 1016.4
20260504010545 49 254 0.0 0.0 0.00 0.00 0.00 73 1016.3
20260504010041 49 254 0.0 0.0 0.00 0.00 0.00 73 1016.5
20260504005538 49 254 0.0 0.0 0.00 0.00 0.00 72 1016.4
20260504005035 50 255 0.0 0.0 0.00 0.00 0.00 75 1016.3
20260504004533 50 261 0.0 0.0 0.00 0.00 0.00 71 1016.2
20260504004030 50 261 0.0 0.0 0.00 0.00 0.00 71 1016.2
20260504003526 50 230 0.0 0.0 0.00 0.00 0.00 69 1016.1
20260504003023 51 267 0.0 0.0 0.00 0.00 0.00 69 1016.0
20260504002520 51 228 0.0 0.0 0.00 0.00 0.00 67 1015.8
20260504002017 51 291 0.0 0.0 0.00 0.00 0.00 62 1016.1
20260504001515 52 292 0.0 1.0 0.00 0.00 0.00 64 1016.0
20260504001011 53 292 0.0 0.0 0.00 0.00 0.00 61 1015.8
20260504000508 54 293 0.0 0.0 0.00 0.00 0.00 59 1015.8
20260504000005 54 298 0.0 1.0 0.00 0.00 0.00 51 1016.0
20260503235504 55 350 0.0 0.0 0.00 0.00 0.00 48 1016.1
20260503235000 55 312 0.0 1.0 0.00 0.00 0.00 47 1016.3
20260503234457 55 312 0.0 0.0 0.00 0.00 0.00 47 1016.1
20260503233956 55 313 0.0 1.0 0.00 0.00 0.00 48 1016.2
20260503233452 55 289 0.0 2.0 0.00 0.00 0.00 49 1016.0
20260503232948 55 320 0.0 0.0 0.00 0.00 0.00 49 1016.2
20260503232445 56 289 0.0 1.0 0.00 0.00 0.00 43 1016.1
20260503231943 57 7 0.0 0.0 0.00 0.00 0.00 40 1016.1